Wind_Speed
39 39 39 42 42 38 39 38 44 43 42 47 50 45 39 37 34 30 23 18 11 6 27 30 29 29 27 31 29 31 30 31 29 20 19 18 18 20 23 26 25 27 34 40 43 45 49 51 52
42 38 44 43 39 37 39 41 45 42 46 46 47 38 39 38 35 29 24 19 17 12 6 23 36 38 40 36 37 37 36 30 22 22 22 18 20 23 24 25 24 22 22 25 31 36 40 46 52
43 42 43 42 39 40 40 42 44 45 46 46 44 43 38 39 33 30 23 20 17 16 12 8 13 29 35 39 36 29 23 24 20 22 20 23 28 28 28 28 28 25 24 24 26 29 34 38 43
33 36 39 39 40 40 41 44 45 42 46 45 46 42 37 37 33 30 24 20 17 16 16 12 11 14 20 20 18 20 23 26 25 22 23 28 32 30 29 27 26 24 25 26 24 24 28 32 36
38 41 39 36 42 45 45 39 39 45 45 45 47 45 37 35 32 29 24 22 19 17 17 17 14 16 14 14 16 21 27 23 26 28 30 27 29 30 27 29 25 26 26 25 22 21 22 24 28
39 42 37 39 38 42 35 37 44 44 45 46 47 46 37 35 28 27 24 23 20 19 19 18 18 19 19 19 23 23 24 31 31 32 32 29 29 27 27 27 26 26 25 25 23 22 21 22 23
40 41 40 45 46 43 40 46 47 45 47 46 49 44 40 32 27 26 24 24 22 20 21 21 21 23 26 24 23 23 20 23 25 25 26 27 28 29 27 26 27 25 26 24 24 24 24 23 24
46 42 46 46 47 47 45 47 48 47 46 49 45 41 40 30 28 27 25 26 24 22 23 24 25 25 25 29 30 29 27 27 28 29 29 30 30 31 28 29 26 25 26 26 25 24 24 23 22
48 48 45 49 45 46 46 47 47 45 45 48 43 42 38 31 28 27 26 27 27 25 26 27 27 28 28 28 29 29 30 30 28 28 30 32 32 32 32 27 26 27 28 27 26 25 25 24 24
48 49 50 47 47 46 47 49 46 45 49 43 44 45 37 33 28 27 28 30 31 28 28 29 31 31 32 31 31 33 33 32 32 32 33 34 34 33 29 27 27 29 29 28 28 27 26 25 25
56 54 54 56 53 52 51 48 50 50 48 41 46 46 35 34 29 28 28 29 30 30 30 31 32 34 34 34 34 35 36 37 37 37 36 34 33 30 29 28 30 30 31 31 31 29 28 26 26
56 57 59 60 55 54 51 51 52 50 48 45 48 44 35 31 30 30 30 30 30 32 32 33 34 36 37 37 36 35 36 37 37 36 33 31 30 30 30 30 32 32 33 34 34 33 32 31 29
59 61 63 58 58 58 52 54 54 49 47 47 46 44 35 31 29 31 30 31 31 33 33 33 33 37 37 38 38 37 36 36 36 35 34 33 32 32 32 33 34 35 36 36 38 38 37 36 35
63 61 61 61 59 57 52 54 53 49 47 48 46 43 37 33 30 31 32 33 32 31 31 32 31 35 37 37 39 39 37 37 36 36 36 35 34 34 35 36 36 37 38 39 40 41 41 41 41
66 67 65 64 59 55 54 54 53 47 46 49 45 42 36 33 32 32 34 35 33 30 29 28 27 33 35 37 39 40 39 38 37 37 37 37 37 37 38 39 39 40 40 42 43 43 44 44 44
71 68 67 62 59 56 55 52 49 47 48 49 45 38 37 34 33 32 33 35 36 33 30 28 26 26 35 37 39 41 41 40 39 39 40 41 41 40 40 41 42 42 43 44 45 46 47 48 48
73 71 68 64 60 55 54 52 50 49 49 46 44 39 39 37 35 34 35 35 35 34 31 30 27 27 27 35 39 41 42 42 41 41 41 42 43 43 43 43 44 45 46 46 48 49 51 51 50
71 70 65 62 58 57 57 54 48 50 49 46 44 41 40 37 36 35 35 34 35 36 32 29 28 28 28 28 35 40 42 43 43 42 43 43 44 45 46 47 47 47 48 49 50 51 52 52 52
71 67 63 60 59 57 56 51 49 49 49 46 42 43 41 38 37 34 33 34 36 37 35 31 30 30 29 30 31 35 41 43 43 44 44 45 46 46 47 47 47 48 49 50 51 52 53 53 52
59 59 58 58 56 54 52 52 49 50 47 47 46 45 43 40 38 35 35 35 38 37 36 35 34 33 31 31 32 32 32 38 44 45 47 47 48 49 49 50 51 51 51 52 53 53 54 54 54
56 57 57 53 52 51 54 54 49 49 49 49 48 46 44 42 41 37 36 36 39 38 37 37 37 36 35 33 33 33 34 35 36 42 47 49 50 51 52 53 53 53 53 54 55 56 56 57 58
57 56 53 51 51 53 54 51 49 50 53 51 48 48 45 44 41 41 40 39 40 39 39 39 37 37 39 38 36 37 37 37 38 40 41 42 45 50 53 55 56 56 57 57 58 59 60 61 62
55 55 55 53 51 50 50 51 54 55 52 51 50 49 47 43 42 43 44 43 43 42 41 41 41 41 42 43 41 40 40 42 43 44 44 45 46 47 48 50 52 54 56 59 61 62 63 64 65
55 54 54 52 53 50 55 53 55 54 52 49 49 50 50 49 48 47 47 47 46 45 45 45 45 45 45 47 47 46 46 46 47 48 49 49 50 51 52 53 55 56 57 59 59 60 61 61 63
55 56 56 56 53 54 58 56 52 55 53 53 53 53 53 53 53 51 50 49 49 49 50 49 48 49 49 50 50 51 51 52 52 52 53 54 55 55 56 57 58 60 62 62 63 63 64 64 65
59 57 56 54 56 52 53 52 55 55 56 57 58 57 56 56 54 53 52 51 51 51 51 53 53 54 54 53 53 54 55 56 56 58 59 60 61 60 60 60 61 62 63 65 66 66 65 65 66
54 55 61 57 54 54 55 54 55 58 60 61 59 57 57 57 56 55 54 53 54 55 57 59 59 58 57 57 57 58 59 60 60 62 63 64 63 63 64 64 64 65 66 66 67 69 70 71 71
56 58 58 57 58 55 54 57 58 58 59 60 60 60 60 59 58 57 56 58 60 62 61 61 61 60 60 60 59 61 63 63 63 64 64 65 65 65 64 65 66 68 69 70 72 74 75 76 76
56 56 58 60 55 56 56 56 61 61 61 61 62 62 61 60 60 61 63 64 65 65 65 64 63 62 63 64 65 66 67 67 66 66 66 67 69 69 71 72 73 73 75 77 78 78 79 79 80
55 56 59 60 59 59 59 58 61 63 64 65 65 62 63 64 65 66 66 66 65 64 65 65 66 67 68 70 71 71 71 71 71 71 73 75 76 76 76 78 79 81 82 82 83 84 85 86 87
Wind_Direction
284 290 295 298 306 308 320 319 329 333 331 336 338 340 342 343 341 343 341 345 347 262 231 234 239 244 247 248 249 247 254 262 266 234 224 222 222 238 239 248 256 254 248 246 244 240 238 236 237
283 290 291 297 306 311 316 320 322 328 328 333 338 336 340 341 336 334 336 336 335 332 251 238 233 236 240 244 249 252 257 257 234 229 223 231 243 245 252 257 260 264 253 247 245 243 242 242 241
278 276 286 295 305 308 311 316 319 323 326 332 336 338 337 338 331 328 328 329 325 323 318 274 249 237 238 244 247 243 233 233 227 222 228 243 239 245 255 262 259 265 261 262 250 244 242 241 240
276 276 286 293 302 309 306 309 316 321 324 328 333 337 335 334 329 325 322 321 317 311 309 293 269 240 230 227 221 220 225 236 231 226 229 238 240 252 256 256 259 261 261 257 247 242 243 241 242
274 282 285 298 305 303 308 311 314 319 321 328 330 331 330 330 328 322 320 316 310 303 293 290 273 251 244 245 232 225 226 219 228 231 239 245 248 255 250 257 259 258 258 248 248 246 245 243 241
275 281 280 289 299 302 304 308 309 315 319 324 326 327 325 324 322 317 315 313 302 296 288 277 263 244 239 241 245 250 247 225 232 240 243 246 251 249 260 255 254 258 244 245 248 249 248 247 246
271 276 280 286 294 292 291 300 306 312 316 319 321 323 323 319 316 309 311 311 300 288 285 277 266 245 240 233 237 244 240 236 239 239 240 255 255 256 258 257 261 245 239 242 246 250 253 252 252
272 273 280 281 289 289 293 295 304 307 309 314 317 320 321 314 310 303 307 308 299 286 278 274 265 258 248 239 241 244 246 247 250 247 251 252 255 257 255 263 247 240 240 242 244 247 249 254 257
265 275 277 279 287 289 289 297 298 306 305 312 314 319 318 309 304 300 300 305 302 291 279 269 263 259 255 251 245 247 247 248 247 249 250 251 253 258 264 251 241 239 240 241 243 245 248 251 255
270 272 272 281 285 287 288 292 299 299 306 309 312 315 312 306 299 294 297 300 298 292 285 273 260 255 253 251 250 247 249 251 250 250 253 255 255 260 251 244 240 241 241 241 242 244 248 252 256
268 267 275 279 286 288 290 293 297 300 304 302 308 312 307 302 294 288 290 295 296 292 287 277 262 253 251 249 251 251 249 249 252 254 257 255 253 250 246 243 240 243 242 242 243 245 248 253 258
266 267 270 278 282 285 286 291 294 297 301 299 305 307 303 295 290 281 286 290 290 293 288 280 264 250 248 247 248 251 252 251 252 253 252 249 247 246 246 245 244 246 246 246 245 246 250 254 260
265 267 270 276 280 284 283 288 292 293 300 299 303 303 298 290 286 277 283 287 292 291 289 281 267 250 245 246 246 249 252 253 251 249 247 247 247 246 247 246 245 247 248 251 250 251 254 259 265
265 268 267 271 277 279 283 286 287 290 293 292 298 300 293 290 286 278 278 286 291 294 291 285 268 253 244 245 245 248 251 252 252 249 248 247 248 248 248 248 250 251 251 252 253 255 258 262 267
262 264 267 272 275 277 280 284 285 286 286 291 291 297 288 286 286 283 276 282 289 292 292 291 276 255 248 246 245 247 250 252 252 250 249 248 249 249 249 250 252 254 254 255 256 258 260 263 267
258 263 266 271 274 275 279 278 281 280 282 288 287 290 285 286 285 286 278 280 285 289 291 291 281 268 253 249 247 247 249 251 251 251 250 250 251 251 251 253 254 255 256 257 259 260 262 264 268
262 263 267 271 271 273 273 272 276 278 276 280 285 284 279 287 284 283 279 279 282 283 287 290 285 273 265 256 252 251 251 252 253 254 253 253 254 254 254 254 255 256 257 259 260 262 263 265 267
260 264 266 265 265 268 272 273 276 269 272 276 282 280 276 284 284 280 277 277 282 281 280 283 284 275 267 263 257 254 253 254 256 256 256 256 256 256 257 257 257 258 259 260 261 263 265 267 269
258 259 261 262 265 268 270 268 266 263 267 276 277 275 275 279 279 274 272 278 278 278 278 281 279 277 271 265 263 259 254 253 255 256 257 257 257 257 257 258 259 260 262 262 263 264 265 266 268
257 259 259 263 264 266 264 262 259 262 266 277 273 270 274 273 273 268 272 274 275 275 275 278 278 275 271 268 265 262 261 256 254 254 254 255 256 257 258 259 260 261 262 263 263 264 265 265 267
255 256 259 259 259 259 257 257 258 259 270 270 268 269 270 268 269 270 271 275 275 272 271 277 276 272 269 267 265 264 262 260 258 256 255 256 256 257 257 258 259 260 261 261 262 264 264 265 265
252 252 253 254 256 254 255 257 258 260 266 266 265 267 266 269 270 273 273 274 273 269 270 275 272 273 270 268 266 263 262 262 262 260 260 260 259 259 259 259 260 260 260 261 261 262 263 265 266
245 248 250 250 250 254 255 256 259 258 261 263 265 263 264 264 267 274 274 273 270 267 270 275 272 272 269 266 266 265 263 262 262 261 261 260 260 260 261 261 262 262 262 263 263 263 264 265 266
242 244 245 248 252 254 253 253 258 260 262 261 259 260 264 266 269 275 276 272 268 265 268 271 271 271 270 266 264 264 265 264 263 264 264 264 264 264 264 263 263 263 264 264 265 265 266 266 266
244 248 250 253 251 247 251 254 253 262 261 259 260 260 262 265 269 272 274 270 267 267 269 270 271 270 269 265 263 263 265 266 266 266 265 265 265 266 266 266 267 267 267 266 265 265 266 266 267
244 244 247 248 250 247 252 260 255 256 260 262 263 265 266 269 270 271 271 269 268 268 269 273 273 272 269 265 263 263 264 266 265 265 266 267 268 268 268 268 267 267 266 266 265 265 265 266 267
240 244 246 246 247 253 259 254 254 260 262 263 264 266 267 270 271 271 271 270 270 269 271 273 273 271 269 268 267 267 266 267 267 266 265 266 267 268 268 267 267 267 266 266 266 265 265 266 268
243 247 252 253 254 253 252 258 260 259 260 263 265 268 270 271 270 271 271 272 272 273 274 273 272 271 269 268 268 269 269 268 267 266 265 265 266 266 266 267 268 268 268 268 267 267 266 266 266
246 249 251 251 252 255 256 256 260 263 263 263 266 268 269 271 273 273 273 273 274 273 272 271 270 269 268 268 269 270 269 269 267 266 265 265 265 265 266 266 267 267 267 268 268 268 267 267 266
246 248 251 253 254 255 257 257 258 261 261 263 267 267 268 270 273 275 275 273 272 272 270 270 270 270 270 271 270 270 269 268 267 267 267 267 267 266 266 266 267 268 268 268 269 268 267 267 267
Height
10815 10809 10806 10806 10807 10805 10802 10800 10797 10795 10792 10786 10781 10776 10772 10767 10764 10761 10758 10757 10757 10756 10757 10758 10759 10760 10762 10764 10766 10767 10769 10770 10771 10773 10775 10777 10778 10780 10782 10783 10784 10785 10785 10786 10789 10792 10794 10796 10799
10809 10805 10802 10800 10801 10800 10798 10795 10793 10790 10788 10785 10780 10774 10770 10766 10762 10758 10756 10754 10753 10753 10753 10754 10756 10757 10757 10759 10760 10762 10763 10766 10767 10769 10771 10773 10775 10776 10777 10779 10779 10779 10779 10781 10781 10783 10785 10787 10790
10803 10801 10798 10796 10795 10795 10793 10791 10788 10786 10783 10780 10778 10773 10768 10763 10760 10757 10754 10752 10750 10749 10749 10750 10751 10751 10752 10753 10755 10756 10759 10761 10763 10765 10767 10769 10771 10772 10772 10774 10775 10774 10774 10775 10776 10777 10779 10780 10781
10795 10794 10792 10790 10789 10789 10788 10786 10783 10781 10778 10775 10772 10769 10765 10761 10756 10753 10751 10749 10748 10747 10746 10746 10747 10747 10748 10750 10751 10753 10756 10758 10759 10761 10763 10764 10764 10766 10768 10769 10770 10770 10770 10770 10771 10773 10773 10774 10775
10788 10787 10786 10784 10783 10783 10782 10781 10778 10776 10773 10770 10766 10764 10761 10758 10754 10751 10748 10746 10745 10744 10744 10743 10743 10744 10745 10747 10749 10751 10752 10754 10755 10756 10757 10758 10759 10761 10763 10764 10764 10765 10765 10765 10767 10767 10768 10768 10769
10782 10780 10779 10778 10777 10776 10776 10774 10773 10771 10768 10765 10762 10759 10756 10754 10750 10747 10745 10743 10741 10740 10740 10740 10740 10741 10742 10743 10745 10746 10747 10748 10750 10751 10753 10755 10755 10756 10757 10758 10759 10760 10760 10761 10762 10762 10763 10763 10764
10775 10773 10772 10771 10770 10770 10769 10768 10767 10766 10763 10760 10757 10754 10751 10748 10746 10743 10741 10739 10737 10736 10735 10735 10736 10737 10738 10739 10741 10742 10743 10744 10746 10747 10748 10749 10750 10751 10752 10753 10753 10754 10755 10756 10757 10758 10758 10759 10759
10767 10765 10766 10764 10764 10763 10762 10761 10760 10760 10757 10755 10752 10749 10745 10742 10740 10738 10736 10733 10732 10731 10730 10730 10730 10731 10732 10734 10735 10736 10738 10739 10740 10742 10743 10743 10744 10745 10746 10747 10748 10749 10750 10752 10753 10754 10754 10754 10754
10759 10758 10758 10756 10756 10756 10754 10754 10753 10752 10750 10748 10746 10744 10740 10737 10735 10732 10730 10728 10726 10724 10723 10723 10723 10723 10724 10726 10728 10729 10731 10732 10734 10735 10736 10737 10738 10739 10740 10741 10743 10744 10745 10747 10748 10749 10749 10749 10750
10749 10750 10749 10748 10748 10747 10747 10746 10746 10745 10744 10741 10738 10736 10734 10731 10729 10727 10724 10722 10720 10718 10716 10715 10715 10715 10717 10718 10720 10722 10724 10725 10726 10728 10729 10731 10732 10732 10734 10736 10737 10739 10740 10741 10742 10744 10744 10745 10745
10740 10740 10739 10739 10738 10738 10738 10738 10737 10736 10736 10734 10732 10730 10727 10725 10723 10721 10718 10716 10713 10711 10709 10707 10707 10707 10708 10710 10712 10713 10715 10717 10719 10720 10721 10722 10724 10726 10728 10730 10732 10733 10734 10735 10737 10738 10739 10739 10740
10729 10729 10729 10729 10730 10730 10729 10729 10728 10728 10727 10727 10725 10723 10721 10718 10717 10715 10713 10710 10707 10704 10701 10699 10698 10698 10700 10702 10704 10706 10707 10709 10710 10711 10713 10714 10716 10719 10721 10723 10725 10727 10728 10729 10731 10732 10733 10733 10733
10717 10718 10719 10719 10720 10720 10720 10719 10719 10718 10718 10718 10717 10715 10713 10711 10710 10708 10706 10703 10700 10697 10695 10691 10689 10690 10691 10693 10695 10698 10699 10701 10702 10704 10706 10707 10709 10711 10714 10716 10718 10720 10721 10722 10724 10725 10726 10726 10727
10705 10707 10708 10709 10710 10711 10711 10710 10709 10708 10708 10708 10707 10706 10704 10703 10702 10700 10699 10696 10693 10690 10688 10684 10681 10681 10683 10685 10687 10690 10692 10693 10695 10697 10698 10700 10702 10704 10706 10708 10710 10712 10714 10714 10716 10717 10718 10718 10719
10692 10694 10696 10697 10699 10700 10700 10700 10700 10699 10698 10697 10697 10696 10695 10694 10694 10692 10690 10688 10686 10683 10680 10677 10674 10674 10675 10676 10679 10681 10684 10686 10687 10689 10691 10693 10694 10696 10698 10700 10702 10704 10705 10706 10707 10708 10709 10710 10710
10680 10683 10685 10686 10687 10689 10689 10691 10690 10689 10688 10687 10687 10686 10685 10685 10685 10683 10682 10681 10678 10675 10673 10670 10668 10667 10667 10668 10670 10672 10674 10677 10679 10681 10682 10684 10686 10688 10690 10692 10694 10695 10696 10697 10698 10699 10700 10700 10700
10667 10670 10673 10675 10674 10676 10677 10679 10679 10679 10678 10676 10676 10675 10676 10675 10675 10675 10674 10672 10670 10668 10666 10664 10662 10661 10660 10660 10661 10663 10665 10667 10670 10672 10674 10676 10678 10679 10681 10682 10684 10685 10686 10687 10688 10688 10689 10689 10690
10656 10658 10659 10661 10661 10662 10665 10667 10668 10667 10666 10666 10666 10665 10666 10665 10665 10665 10665 10663 10661 10659 10658 10656 10655 10654 10652 10651 10652 10653 10655 10658 10661 10663 10665 10666 10668 10669 10671 10672 10674 10675 10676 10677 10677 10677 10678 10678 10678
10640 10643 10645 10648 10649 10651 10652 10655 10657 10655 10655 10655 10655 10655 10656 10655 10656 10656 10656 10655 10652 10650 10649 10648 10647 10646 10645 10644 10644 10644 10645 10647 10650 10653 10654 10656 10657 10659 10660 10662 10664 10665 10666 10666 10666 10666 10667 10667 10667
10626 10629 10631 10635 10637 10639 10639 10642 10645 10643 10643 10643 10644 10644 10645 10644 10645 10646 10646 10645 10644 10642 10640 10640 10639 10638 10637 10636 10636 10636 10636 10637 10639 10640 10642 10644 10647 10649 10650 10651 10653 10654 10654 10654 10655 10655 10655 10655 10655
10611 10616 10618 10623 10625 10627 10627 10629 10635 10630 10632 10633 10632 10633 10633 10633 10633 10634 10635 10634 10634 10633 10631 10631 10630 10629 10628 10628 10628 10628 10628 10628 10628 10628 10630 10632 10634 10636 10637 10638 10639 10640 10641 10641 10642 10642 10642 10642 10642
10600 10601 10605 10610 10613 10616 10615 10617 10621 10621 10619 10620 10622 10623 10623 10622 10623 10623 10624 10624 10623 10623 10622 10621 10620 10620 10619 10619 10619 10619 10619 10619 10618 10618 10619 10620 10621 10622 10623 10624 10624 10625 10626 10627 10627 10628 10628 10627 10627
10585 10589 10593 10597 10601 10603 10603 10605 10602 10606 10609 10609 10611 10611 10612 10613 10613 10612 10611 10612 10612 10612 10611 10610 10610 10610 10609 10609 10608 10608 10608 10608 10607 10608 10608 10609 10609 10610 10611 10611 10611 10611 10611 10611 10612 10612 10613 10613 10612
10572 10575 10579 10584 10588 10595 10587 10592 10590 10590 10594 10598 10599 10599 10600 10601 10602 10601 10600 10600 10600 10600 10600 10599 10598 10598 10598 10598 10597 10597 10597 10596 10596 10596 10597 10597 10597 10598 10598 10598 10597 10597 10597 10597 10597 10598 10598 10597 10596
10558 10561 10568 10572 10576 10582 10573 10580 10584 10575 10579 10582 10584 10587 10588 10589 10589 10589 10588 10587 10586 10586 10586 10586 10586 10586 10585 10585 10585 10584 10584 10583 10583 10583 10583 10583 10583 10584 10583 10583 10583 10583 10583 10582 10582 10582 10582 10582 10581
10546 10550 10555 10559 10562 10566 10563 10571 10569 10566 10565 10566 10569 10571 10573 10574 10574 10574 10574 10573 10573 10572 10572 10571 10571 10571 10571 10571 10571 10570 10569 10569 10569 10569 10568 10567 10567 10568 10568 10568 10567 10566 10566 10566 10565 10565 10565 10564 10564
10534 10539 10539 10546 10549 10552 10554 10555 10553 10553 10552 10552 10553 10555 10557 10558 10558 10558 10558 10558 10557 10557 10557 10556 10555 10555 10555 10555 10555 10554 10553 10553 10553 10552 10551 10551 10552 10552 10551 10550 10549 10549 10548 10548 10547 10547 10547 10547 10546
10521 10522 10527 10531 10535 10538 10542 10540 10538 10538 10538 10538 10539 10540 10541 10541 10541 10541 10541 10541 10540 10540 10540 10539 10539 10538 10537 10537 10537 10536 10536 10536 10536 10535 10534 10535 10535 10535 10533 10532 10532 10531 10530 10529 10529 10528 10527 10527 10526
10507 10510 10512 10514 10522 10522 10525 10527 10523 10524 10523 10523 10523 10523 10524 10524 10523 10523 10523 10523 10523 10522 10521 10521 10521 10520 10520 10520 10520 10519 10518 10517 10516 10516 10516 10516 10516 10515 10514 10513 10512 10511 10510 10508 10507 10507 10506 10505 10505
10492 10495 10497 10500 10505 10507 10510 10513 10510 10506 10505 10506 10508 10508 10507 10506 10506 10505 10504 10503 10503 10503 10503 10503 10502 10502 10501 10501 10500 10499 10498 10497 10496 10496 10495 10494 10494 10493 10492 10491 10490 10488 10486 10485 10484 10483 10482 10481 10480